Location: Gleizolles
(44.4833°N, 6.7667°E)
Time: 00:07:59
(UTC+00:00)

Courier 1B Rocket - Pass Details

Date: 29 June 2024
Orbit: 920 x 1201 km, 28.3° (Epoch: 23 July)

Event Time Altitude Azimuth Distance (km) Brightness Sun altitude
Exits shadow 00:46:58 11° 138° (SE) 2,613 7.0 -20.4°
Drops below altitude 10° 00:47:22 10° 135° (SE) 2,704 7.1 -20.4°
Sets 00:51:00 0° 117° (ESE) 3,703 7.9 -20.2°
